Wind_Speed
5 5 5 5 5 5 5 5 5 5 5 6 6 6 6 6 6 7 7 8 8 8 8 9 9 9 9 10 10 12 12 12 12 12 12 12 12 12 12 12 11 11 10
6 6 6 6 6 6 5 6 6 6 6 7 7 7 7 7 7 8 8 8 8 8 8 9 9 10 10 10 11 12 12 12 13 13 13 12 12 12 12 13 13 12 12
6 6 7 7 7 8 7 7 7 7 7 7 7 8 8 8 8 9 9 9 9 9 9 10 10 10 11 11 12 12 12 12 13 14 14 14 14 14 14 14 13 13 12
8 8 8 9 9 8 8 8 8 8 8 8 8 8 9 9 9 9 9 9 10 10 10 10 11 11 11 11 12 12 13 13 13 14 14 14 15 15 14 14 14 14 14
9 9 9 10 10 9 9 9 8 8 8 8 8 9 9 9 10 10 10 10 10 10 10 10 11 11 12 12 13 13 13 14 14 14 15 15 15 15 14 15 15 14 14
10 10 11 11 10 10 9 9 9 9 9 10 9 9 9 9 10 10 11 11 10 11 11 11 11 11 12 13 13 14 14 15 15 15 15 16 16 16 16 16 16 16 16
12 12 12 11 10 10 10 9 10 9 10 10 10 10 9 9 10 10 11 11 11 12 12 13 13 13 13 13 13 14 15 15 16 16 16 16 16 16 17 17 17 17 17
12 12 11 11 11 10 10 10 10 10 10 10 10 10 10 10 11 11 12 12 12 13 13 13 13 13 14 14 14 15 15 16 16 16 16 17 17 17 17 16 16 16 16
12 12 12 12 12 11 11 11 12 12 12 11 11 11 11 11 12 13 13 12 12 13 13 14 14 14 14 15 15 15 16 16 16 17 17 17 18 18 18 17 17 17 17
14 14 14 14 14 13 13 13 14 14 13 13 13 13 13 13 13 13 14 13 13 13 14 14 14 14 15 15 16 16 16 17 17 18 18 18 18 18 18 19 19 18 18
15 15 15 15 15 15 15 15 16 16 15 15 15 14 14 14 15 15 15 15 15 15 15 14 15 15 15 16 16 16 16 17 18 18 18 18 18 18 18 19 19 19 19
16 17 17 17 17 17 17 17 18 18 16 16 16 15 15 15 16 16 16 16 16 16 15 15 15 16 17 17 17 17 17 17 18 17 17 18 17 18 19 19 19 19 19
18 18 19 19 19 18 18 19 19 19 18 17 17 17 17 16 16 16 17 17 17 17 17 16 17 16 17 18 18 18 17 17 17 17 17 17 18 18 18 19 19 19 19
20 20 20 20 20 20 20 20 21 20 19 19 19 19 18 17 17 17 17 17 17 17 17 17 16 16 17 17 17 17 16 16 17 17 17 17 18 18 19 19 19 19 19
22 22 23 23 22 22 22 22 22 21 21 20 20 19 19 19 19 18 18 18 18 18 17 18 17 18 18 18 18 17 17 17 17 18 17 17 17 18 18 18 19 19 19
23 24 24 24 23 23 23 24 23 22 22 21 21 20 20 20 20 19 19 19 19 19 19 19 19 19 19 19 19 19 19 18 18 18 18 18 18 18 18 17 18 18 18
24 24 25 25 25 24 24 23 23 22 22 22 21 21 21 21 20 20 20 19 19 20 20 20 20 20 20 20 20 20 20 19 19 20 20 19 19 18 17 17 18 19 19
26 26 26 26 26 25 25 24 23 22 22 22 22 21 21 20 20 21 21 21 21 21 21 21 21 21 21 21 22 21 21 20 20 21 21 20 19 19 18 18 19 19 20
28 28 28 28 27 27 26 25 24 23 22 22 22 22 21 21 21 22 22 22 22 22 22 22 22 21 21 21 21 21 22 22 22 22 22 21 20 20 20 20 20 21 21
29 29 29 29 28 27 27 26 24 23 23 22 22 22 22 21 22 22 22 23 23 23 23 23 22 22 22 21 21 21 22 23 23 23 23 23 23 22 22 22 22 22 22
29 29 29 28 27 27 27 27 26 25 24 23 22 22 22 22 22 22 23 23 23 23 23 22 21 21 20 21 21 21 22 23 24 24 24 24 23 23 23 23 23 23 23
28 28 28 28 28 27 27 27 27 26 24 24 23 22 22 22 21 21 22 22 23 22 22 22 21 21 21 21 21 21 22 22 23 23 23 23 23 23 23 23 24 24 23
28 27 28 28 27 26 26 25 26 25 24 25 24 23 23 22 21 21 21 21 21 21 21 22 21 21 22 22 22 22 22 23 23 22 22 22 23 23 23 23 24 24 23
29 28 28 28 28 27 26 26 25 25 25 24 25 25 24 24 23 22 21 21 20 21 21 21 22 22 22 23 23 23 23 23 23 23 23 23 23 23 23 23 23 24 24
29 29 29 30 29 28 27 27 26 26 26 26 25 25 25 24 24 23 22 22 22 22 22 22 22 22 22 22 22 22 23 23 23 24 24 24 23 23 23 23 23 24 24
29 29 29 30 29 29 28 27 27 27 27 27 27 26 26 25 25 25 25 24 23 23 23 23 23 23 23 23 23 23 22 23 23 23 23 24 23 23 23 23 24 24 24
Wind_Direction
318 314 317 316 315 313 312 308 304 293 285 285 286 292 295 297 292 285 285 283 279 276 274 276 277 275 270 271 268 267 267 267 268 270 269 270 271 271 271 271 272 275 277
305 306 305 308 309 306 312 311 302 301 294 289 291 292 293 293 288 285 284 284 279 277 277 276 273 272 271 271 270 270 268 269 270 272 270 270 270 272 272 271 270 269 271
298 298 298 299 303 302 300 302 302 300 297 292 291 289 288 288 288 285 282 282 281 280 281 279 274 273 274 273 272 273 273 273 273 274 273 273 272 272 271 270 269 267 268
291 291 291 293 294 297 296 297 297 296 293 290 289 289 289 286 287 286 284 285 281 279 280 281 278 276 275 273 272 274 275 276 276 276 276 276 275 273 270 269 268 268 267
287 287 290 290 290 292 290 292 296 294 292 289 287 291 292 289 289 287 286 285 282 280 280 280 278 277 276 274 275 276 276 277 278 277 276 276 275 273 271 270 269 270 269
283 284 287 290 289 288 290 290 292 294 291 288 284 289 292 290 289 287 286 283 280 280 281 283 280 277 276 275 274 276 278 278 278 278 277 274 274 273 271 270 269 269 268
282 282 285 287 290 288 289 289 291 295 294 290 286 286 289 291 292 290 287 283 280 280 282 284 281 277 273 273 273 276 278 279 279 280 281 277 275 274 272 271 270 268 266
283 285 283 285 288 288 286 285 288 292 297 294 288 287 289 287 288 288 287 284 281 281 283 283 282 278 275 275 276 278 280 280 280 281 281 278 277 275 274 272 270 268 267
281 284 282 282 285 285 284 282 284 284 287 289 288 284 283 284 286 284 282 283 281 282 283 282 281 278 278 277 279 281 282 282 281 281 280 279 278 274 272 272 271 268 268
275 281 281 282 283 282 282 282 284 285 284 284 284 282 282 283 286 284 284 282 283 283 285 284 282 282 281 279 279 280 281 281 281 280 280 280 278 274 271 269 269 267 267
272 275 277 280 282 282 281 280 283 284 283 283 284 283 282 283 285 282 281 280 282 282 283 284 285 285 283 281 281 281 280 280 280 281 280 279 278 274 271 268 267 266 265
271 271 274 277 279 281 280 281 283 283 281 281 283 284 283 283 285 282 281 279 281 281 281 282 283 282 283 284 285 285 283 282 282 281 280 279 277 275 272 269 266 265 264
273 274 274 276 278 278 279 281 283 282 279 280 281 282 283 283 285 283 282 280 280 281 280 281 281 280 282 284 285 285 286 285 284 283 282 282 279 276 272 268 265 264 264
274 275 275 276 277 277 278 279 280 280 279 278 280 279 279 281 283 283 282 280 278 278 279 279 280 282 283 285 285 284 287 286 287 286 286 284 282 279 274 269 265 264 264
273 274 274 274 274 275 275 278 279 279 278 278 279 279 278 279 280 280 280 279 277 276 278 278 280 283 285 286 286 286 285 285 285 287 287 286 283 279 275 271 266 264 264
272 273 273 274 274 273 274 278 277 275 275 275 276 277 277 278 277 278 278 278 277 277 278 278 279 281 282 282 284 284 283 285 287 287 287 284 282 281 276 272 268 266 265
273 273 273 272 271 272 274 274 274 273 272 272 273 274 275 276 275 276 277 276 276 276 278 279 280 281 280 279 281 282 282 284 286 286 286 285 282 280 278 275 271 268 268
272 271 272 272 271 273 274 274 273 272 270 271 271 272 273 274 275 275 276 277 276 275 275 277 280 280 280 280 281 280 281 284 285 287 286 284 280 279 276 275 273 272 271
272 271 270 271 271 273 274 272 271 270 269 269 270 272 271 272 274 274 274 275 276 276 275 276 277 280 281 284 284 282 282 283 285 285 284 281 279 278 276 274 273 272 271
270 268 269 268 268 268 269 269 269 268 268 269 270 270 270 271 274 275 274 274 275 276 277 277 277 279 281 283 283 281 281 282 284 282 280 280 279 276 275 274 273 272 271
270 267 267 266 264 264 264 266 267 267 267 268 269 270 270 270 271 273 275 274 274 275 276 276 278 280 282 283 283 281 280 280 283 280 277 276 275 273 272 271 271 271 271
268 266 265 264 263 262 262 263 265 266 265 265 267 268 269 268 270 273 274 273 271 272 274 275 277 279 281 282 284 282 280 280 282 281 279 278 275 274 273 272 271 271 272
268 267 263 263 263 262 262 262 264 264 264 264 267 267 268 269 269 271 272 273 271 271 272 274 276 278 280 282 284 284 282 281 282 281 279 279 277 275 273 272 271 271 271
267 266 264 264 262 261 260 261 261 262 262 262 264 265 266 266 266 269 272 271 271 272 274 275 277 279 283 283 283 284 285 284 283 281 281 282 279 276 275 274 272 272 273
266 264 263 264 262 260 260 260 259 259 260 261 263 264 264 264 266 268 269 267 267 270 272 275 277 280 283 286 287 287 286 285 286 284 281 280 279 277 274 273 273 273 273
265 262 261 263 260 258 258 258 257 257 259 261 262 261 262 264 267 268 268 266 266 269 271 273 276 278 282 285 286 288 289 287 287 285 282 279 278 276 274 273 274 273 273
Height
5875 5874 5874 5874 5873 5873 5873 5873 5873 5873 5873 5872 5872 5872 5871 5871 5871 5871 5871 5871 5871 5871 5871 5871 5871 5871 5871 5871 5871 5871 5871 5872 5872 5872 5872 5872 5872 5872 5872 5872 5872 5872 5872
5874 5874 5873 5873 5873 5872 5872 5872 5872 5872 5871 5871 5871 5870 5870 5870 5870 5869 5869 5869 5869 5869 5868 5868 5868 5868 5868 5868 5868 5869 5869 5869 5869 5869 5869 5869 5870 5870 5869 5870 5870 5870 5869
5873 5873 5872 5872 5872 5871 5871 5871 5870 5870 5870 5869 5869 5869 5868 5868 5868 5867 5867 5867 5866 5866 5866 5866 5866 5865 5865 5865 5866 5866 5866 5866 5866 5866 5866 5867 5867 5866 5866 5866 5866 5866 5866
5871 5871 5871 5870 5870 5869 5869 5869 5869 5868 5868 5867 5867 5867 5866 5866 5865 5865 5864 5864 5864 5863 5863 5863 5863 5863 5862 5862 5862 5863 5863 5863 5863 5863 5863 5863 5863 5863 5863 5863 5863 5863 5863
5869 5869 5869 5868 5868 5867 5867 5867 5867 5866 5866 5865 5865 5864 5864 5863 5863 5862 5862 5862 5861 5861 5861 5860 5860 5860 5859 5859 5859 5859 5859 5859 5860 5860 5860 5860 5859 5859 5859 5859 5859 5859 5859
5867 5867 5866 5866 5866 5865 5865 5864 5864 5864 5863 5863 5863 5862 5861 5861 5860 5860 5860 5859 5859 5858 5858 5858 5857 5857 5857 5857 5856 5856 5856 5856 5856 5856 5856 5856 5855 5855 5855 5855 5855 5855 5855
5864 5864 5864 5863 5863 5863 5863 5862 5862 5861 5861 5860 5860 5860 5859 5858 5858 5858 5857 5857 5856 5856 5855 5854 5854 5853 5853 5853 5853 5853 5852 5852 5852 5852 5851 5851 5851 5851 5851 5850 5851 5851 5851
5861 5861 5861 5861 5861 5861 5860 5860 5859 5859 5858 5858 5857 5857 5857 5857 5855 5855 5854 5854 5853 5852 5852 5851 5850 5850 5850 5849 5849 5849 5848 5848 5848 5847 5847 5847 5846 5846 5846 5846 5846 5846 5846
5858 5858 5858 5858 5858 5858 5858 5857 5857 5856 5855 5855 5854 5854 5854 5853 5852 5852 5851 5850 5850 5849 5848 5848 5847 5846 5846 5845 5845 5845 5844 5844 5843 5843 5842 5842 5842 5841 5841 5841 5841 5842 5842
5855 5855 5855 5855 5855 5854 5854 5854 5853 5853 5852 5851 5851 5850 5850 5850 5849 5848 5848 5847 5846 5845 5845 5844 5843 5843 5842 5841 5841 5840 5840 5839 5838 5838 5837 5837 5836 5836 5836 5836 5836 5836 5837
5851 5851 5851 5851 5851 5850 5850 5850 5850 5849 5849 5848 5847 5847 5846 5846 5845 5845 5844 5843 5843 5842 5841 5840 5840 5839 5838 5837 5837 5836 5835 5834 5833 5833 5832 5831 5831 5831 5830 5830 5830 5831 5831
5847 5847 5846 5846 5846 5846 5846 5846 5845 5845 5844 5844 5844 5843 5842 5842 5841 5840 5840 5839 5839 5838 5837 5836 5836 5835 5834 5833 5832 5831 5830 5829 5828 5828 5827 5826 5826 5825 5825 5825 5825 5825 5826
5842 5842 5842 5842 5841 5841 5841 5841 5841 5840 5840 5839 5839 5839 5838 5838 5837 5836 5836 5835 5834 5834 5833 5832 5831 5830 5830 5829 5828 5826 5825 5824 5823 5823 5822 5821 5821 5820 5819 5819 5819 5820 5820
5837 5836 5836 5836 5836 5836 5836 5836 5835 5835 5835 5835 5834 5834 5833 5833 5832 5831 5831 5830 5830 5829 5829 5828 5827 5826 5825 5824 5823 5822 5821 5820 5819 5818 5817 5816 5815 5814 5814 5814 5814 5814 5815
5830 5831 5830 5830 5830 5830 5830 5830 5830 5829 5829 5829 5829 5828 5828 5828 5827 5827 5826 5825 5825 5825 5824 5823 5822 5821 5820 5820 5819 5818 5817 5816 5815 5814 5813 5811 5810 5809 5808 5808 5808 5808 5809
5824 5824 5824 5823 5823 5824 5824 5824 5824 5823 5823 5823 5823 5823 5822 5822 5822 5821 5821 5820 5820 5819 5819 5819 5817 5817 5816 5815 5814 5813 5812 5811 5810 5809 5808 5806 5805 5804 5803 5802 5802 5803 5803
5817 5817 5817 5817 5817 5817 5817 5817 5818 5817 5817 5817 5817 5817 5817 5816 5816 5816 5815 5815 5814 5814 5814 5813 5812 5811 5811 5810 5809 5808 5807 5806 5805 5804 5803 5801 5800 5799 5798 5798 5797 5798 5798
5810 5810 5810 5810 5810 5810 5810 5811 5811 5811 5811 5811 5811 5811 5811 5810 5810 5810 5810 5809 5809 5808 5808 5808 5807 5806 5805 5804 5803 5802 5802 5801 5800 5799 5797 5796 5795 5794 5793 5793 5793 5793 5793
5802 5802 5802 5803 5803 5803 5803 5803 5804 5804 5804 5804 5804 5804 5805 5804 5804 5804 5804 5803 5803 5803 5802 5802 5801 5800 5800 5798 5797 5796 5796 5795 5794 5793 5791 5790 5789 5789 5788 5787 5787 5787 5787
5793 5794 5794 5795 5795 5795 5796 5796 5797 5797 5798 5798 5798 5798 5798 5798 5798 5798 5798 5797 5797 5796 5796 5795 5795 5794 5794 5792 5791 5790 5790 5788 5787 5786 5785 5784 5783 5783 5782 5782 5781 5781 5781
5784 5785 5785 5786 5787 5788 5788 5789 5789 5790 5791 5791 5791 5791 5791 5792 5792 5792 5792 5791 5791 5790 5790 5789 5789 5788 5787 5786 5785 5784 5783 5782 5781 5779 5778 5777 5777 5776 5775 5775 5775 5774 5774
5775 5776 5776 5778 5779 5780 5780 5781 5782 5782 5783 5783 5784 5784 5785 5785 5785 5785 5785 5785 5784 5784 5784 5783 5783 5782 5781 5780 5779 5778 5777 5775 5774 5773 5772 5771 5770 5769 5769 5768 5768 5768 5768
5766 5767 5768 5769 5770 5772 5773 5774 5774 5775 5776 5777 5777 5778 5778 5778 5778 5778 5778 5778 5778 5778 5777 5777 5776 5776 5775 5774 5773 5772 5770 5769 5768 5766 5765 5764 5763 5762 5761 5761 5761 5761 5761
5757 5758 5759 5760 5761 5763 5764 5766 5766 5767 5768 5769 5770 5770 5771 5771 5772 5772 5772 5771 5772 5771 5771 5770 5770 5769 5768 5768 5766 5765 5764 5762 5761 5760 5758 5757 5756 5755 5755 5754 5754 5754 5754
5748 5749 5750 5751 5752 5754 5756 5757 5758 5760 5761 5762 5762 5763 5763 5764 5764 5765 5765 5765 5765 5765 5764 5764 5763 5763 5762 5761 5759 5758 5757 5756 5754 5753 5751 5750 5749 5748 5748 5748 5747 5747 5747
5738 5739 5741 5742 5743 5745 5747 5748 5750 5751 5753 5754 5754 5754 5755 5756 5757 5756 5757 5757 5758 5758 5758 5757 5757 5756 5755 5754 5753 5752 5750 5749 5747 5746 5744 5743 5742 5741 5741 5741 5740 5740 5740